Stations météo

Publicité
Antwerpen, Belgique (6450): Température de l'air & dewpoint: 14.09.2019 06:00:00 - 20.09.2019 06:00:00 (CEST)Antwerpen, Belgique (6450): Vitesse du vent & gusts: 14.09.2019 06:00:00 - 20.09.2019 06:00:00 (CEST)Antwerpen, Belgique (6450): Direction du vent: 14.09.2019 06:00:00 - 20.09.2019 06:00:00 (CEST)Antwerpen, Belgique (6450): reduced air pressure: 14.09.2019 06:00:00 - 20.09.2019 06:00:00 (CEST)Antwerpen, Belgique (6450): visibility: 14.09.2019 06:00:00 - 20.09.2019 06:00:00 (CEST)
Date & Time tt [°C] td [°C] ff [km/h] ff [knt] fx [km/h] fx [knt] dd ppp [hPa] vv [km]
20.09.2019 06:00:00 8,0 6,1 2 1 4 2 - 1029,7 10
20.09.2019 05:00:00 8,5 6,1 2 1 - - - 1030,0 10
20.09.2019 04:00:00 8,9 6,6 2 1 4 2 - 1030,3 10
20.09.2019 03:00:00 9,0 6,6 4 2 7 4 - 1030,6 10
20.09.2019 02:00:00 10,0 6,5 5 3 - - ENE 1030,7 10
20.09.2019 01:00:00 9,8 6,3 9 5 11 6 ENE - 10
20.09.2019 00:00:00 - - - - 11 6 - - -
19.09.2019 23:00:00 12,1 7,3 4 2 - - - 1031,1 10
19.09.2019 22:00:00 12,6 6,9 8 4 18 10 NE 1030,8 10
19.09.2019 21:00:00 13,4 7,1 5 3 11 6 NE 1030,7 10
19.09.2019 20:00:00 14,9 6,5 8 4 - - NE 1030,5 10
19.09.2019 19:00:00 16,4 6,2 11 6 22 12 NNE 1030,3 10
19.09.2019 18:00:00 17,2 6,6 11 6 25 14 ENE 1030,3 10
19.09.2019 17:00:00 17,2 6,7 15 8 - - NNE 1030,6 10
19.09.2019 16:00:00 17,0 7,5 13 7 22 12 NE 1031,0 10
19.09.2019 15:00:00 16,8 7,1 9 5 22 12 NNE 1031,1 10
19.09.2019 14:00:00 17,5 7,2 9 5 - - NE 1031,4 10
19.09.2019 13:00:00 16,0 6,7 11 6 18 10 NE 1031,9 10
19.09.2019 12:00:00 15,3 7,3 8 4 14 8 NE 1031,9 10
19.09.2019 11:00:00 14,9 7,9 8 4 - - E 1031,8 10
19.09.2019 10:00:00 14,0 7,8 5 3 11 6 NNE 1031,6 10
19.09.2019 09:00:00 12,4 8,6 0 0 4 2 N 1031,1 10
19.09.2019 08:00:00 9,1 7,0 2 1 - - SE 1030,8 10
19.09.2019 07:00:00 10,2 7,5 0 0 4 2 N 1030,2 10
19.09.2019 06:00:00 9,2 7,1 0 0 4 2 N 1030,1 28
19.09.2019 05:00:00 10,7 7,8 4 2 - - - 1030,2 10
19.09.2019 04:00:00 8,7 6,6 4 2 7 4 - 1030,3 10
19.09.2019 03:00:00 9,8 6,9 4 2 7 4 NNE 1030,3 10
19.09.2019 02:00:00 9,9 6,9 4 2 - - N 1030,2 10
19.09.2019 01:00:00 10,6 6,9 2 1 11 6 - 1030,1 10
19.09.2019 00:00:00 11,1 7,0 8 4 11 6 NNE 1029,7 10
18.09.2019 23:00:00 11,5 6,7 5 3 - - NNE 1029,4 10
18.09.2019 22:00:00 12,4 6,3 9 5 14 8 N 1029,1 10
18.09.2019 21:00:00 13,1 6,3 9 5 18 10 NNE 1028,8 10
18.09.2019 20:00:00 14,4 6,7 13 7 - - NNE 1028,2 10
18.09.2019 19:00:00 15,6 5,8 9 5 25 14 N 1027,9 10
18.09.2019 18:00:00 15,8 6,1 16 9 25 14 NNE 1027,8 10
18.09.2019 17:00:00 17,0 7,2 13 7 - - N 1027,8 10
18.09.2019 16:00:00 17,5 5,5 9 5 25 14 N 1027,7 10
18.09.2019 15:00:00 16,9 5,2 9 5 22 12 N 1027,8 10
18.09.2019 14:00:00 16,9 5,1 9 5 - - N 1028,1 10
18.09.2019 13:00:00 17,0 4,8 9 5 25 14 N 1028,6 10
18.09.2019 12:00:00 16,3 4,7 11 6 22 12 NE 1028,5 10
18.09.2019 11:00:00 15,8 4,1 5 3 - - NE 1028,6 10
18.09.2019 10:00:00 15,2 7,7 4 2 7 4 - 1028,4 10
18.09.2019 09:00:00 11,5 8,6 2 1 4 2 - 1028,0 10
18.09.2019 08:00:00 7,0 6,0 2 1 - - S 1027,5 10
18.09.2019 07:00:00 8,0 6,2 0 0 4 2 N 1027,1 10
18.09.2019 06:00:00 8,7 6,9 0 0 4 2 N 1026,9 10
18.09.2019 05:00:00 7,6 6,1 0 0 - - N 1026,8 10
18.09.2019 04:00:00 6,9 5,5 2 1 4 2 SE 1026,6 10
18.09.2019 03:00:00 7,7 5,8 2 1 4 2 - 1026,6 10
18.09.2019 02:00:00 6,9 4,4 2 1 - - SW 1026,7 10
18.09.2019 01:00:00 9,7 5,6 4 2 11 6 NNE 1026,4 10
18.09.2019 00:00:00 11,2 5,9 8 4 14 8 N 1026,3 10
17.09.2019 23:00:00 12,0 5,8 8 4 - - N 1026,0 10
17.09.2019 22:00:00 12,3 5,1 5 3 14 8 N 1025,7 10
17.09.2019 21:00:00 12,7 5,6 8 4 25 14 N 1025,3 10
17.09.2019 20:00:00 14,3 5,2 18 10 - - N 1024,7 10
17.09.2019 19:00:00 16,0 6,6 18 10 36 19 N 1024,1 10
17.09.2019 18:00:00 17,0 7,0 22 12 40 21 NNW 1023,6 10
17.09.2019 17:00:00 17,6 7,5 21 11 - - NNW 1023,5 10
17.09.2019 16:00:00 18,7 9,2 24 13 36 19 N 1023,3 10
17.09.2019 15:00:00 18,9 8,1 24 13 36 19 WNW 1022,9 10
17.09.2019 14:00:00 17,7 8,6 21 11 - - WNW 1023,0 10
17.09.2019 13:00:00 17,7 7,5 18 10 29 16 WNW 1023,0 10
17.09.2019 12:00:00 16,7 8,1 13 7 25 14 NW 1023,3 10
17.09.2019 11:00:00 16,1 8,6 11 6 - - WNW 1023,1 10
17.09.2019 10:00:00 15,2 8,8 11 6 18 10 WNW 1023,0 10
17.09.2019 09:00:00 13,9 9,9 5 3 7 4 SW 1022,5 10
17.09.2019 08:00:00 8,8 7,4 2 1 - - - 1022,3 10
17.09.2019 07:00:00 10,8 8,4 2 1 7 4 - 1022,0 10
17.09.2019 06:00:00 13,4 9,1 5 3 11 6 NNW 1021,9 10
17.09.2019 05:00:00 13,4 10,0 5 3 - - NNW 1021,8 10
17.09.2019 04:00:00 14,9 10,6 9 5 18 10 NNW 1021,8 10
17.09.2019 03:00:00 15,4 10,4 5 3 7 4 NNW 1021,8 10
17.09.2019 02:00:00 14,9 11,3 5 3 - - NNW 1022,1 10
17.09.2019 01:00:00 15,2 11,4 9 5 14 8 N 1022,2 10
17.09.2019 00:00:00 15,4 12,0 8 4 14 8 N 1022,2 10
16.09.2019 23:00:00 15,5 12,0 11 6 - - N 1021,9 10
16.09.2019 22:00:00 15,9 12,7 11 6 14 8 N 1021,8 10
16.09.2019 21:00:00 16,1 12,4 5 3 14 8 N 1021,4 10
16.09.2019 20:00:00 16,5 12,9 8 4 - - NNE 1021,1 10
16.09.2019 19:00:00 16,8 13,4 8 4 14 8 N 1021,0 10
16.09.2019 18:00:00 16,9 13,9 9 5 25 14 NNE 1020,9 8
16.09.2019 17:00:00 17,4 14,5 16 9 - - NNE 1021,0 8
16.09.2019 16:00:00 18,1 14,5 16 9 25 14 NNW 1020,6 7
16.09.2019 15:00:00 18,3 16,1 13 7 25 14 N 1020,4 7
16.09.2019 14:00:00 20,3 14,5 11 6 - - WNW 1020,3 8
16.09.2019 13:00:00 19,6 14,4 11 6 18 10 WNW 1020,5 10
16.09.2019 12:00:00 18,5 14,1 13 7 18 10 W 1020,6 10
16.09.2019 11:00:00 17,6 12,6 9 5 - - W 1020,5 10
16.09.2019 10:00:00 16,7 12,0 9 5 14 8 SW 1020,4 10
16.09.2019 09:00:00 16,0 12,4 4 2 7 4 - 1020,4 10
16.09.2019 08:00:00 15,5 12,9 4 2 - - - 1020,3 7
16.09.2019 07:00:00 15,7 13,2 5 3 7 4 S 1020,5 7
16.09.2019 06:00:00 14,0 13,1 4 2 7 4 - 1020,6 7
16.09.2019 05:00:00 13,6 12,7 0 0 - - N 1021,4 9
16.09.2019 04:00:00 13,1 12,0 2 1 7 4 - 1021,9 9
16.09.2019 03:00:00 15,1 13,5 4 2 7 4 N 1022,2 10
16.09.2019 02:00:00 14,0 12,7 5 3 - - S 1021,9 10
16.09.2019 01:00:00 13,6 12,9 5 3 7 4 S 1022,5 10
16.09.2019 00:00:00 16,4 13,9 2 1 7 4 S 1023,0 10
15.09.2019 23:00:00 15,7 14,1 5 3 - - SSE 1022,9 10
15.09.2019 22:00:00 17,1 14,0 4 2 18 10 - 1023,2 10
15.09.2019 21:00:00 18,0 14,0 9 5 25 14 N 1023,0 10
15.09.2019 20:00:00 19,1 13,2 15 8 - - N 1022,8 10
15.09.2019 19:00:00 21,3 8,8 18 10 25 14 NW 1022,6 10
15.09.2019 18:00:00 22,8 5,8 15 8 25 14 NW 1022,5 10
15.09.2019 17:00:00 23,3 6,3 18 10 - - NW 1022,9 10
15.09.2019 16:00:00 24,3 8,6 15 8 22 12 W 1023,2 10
15.09.2019 15:00:00 23,4 8,3 11 6 32 18 WNW 1023,6 15
15.09.2019 14:00:00 22,7 7,9 13 7 - - WSW 1024,2 10
15.09.2019 13:00:00 21,4 9,3 16 9 25 14 WNW 1024,8 10
15.09.2019 12:00:00 20,0 10,5 11 6 18 10 W 1025,1 10
15.09.2019 11:00:00 18,4 10,0 11 6 - - W 1025,2 10
15.09.2019 10:00:00 16,4 9,6 9 5 14 8 WSW 1024,8 10
15.09.2019 09:00:00 13,5 9,9 5 3 11 6 SW 1024,9 10
15.09.2019 08:00:00 8,9 7,5 0 0 - - N 1025,1 10
15.09.2019 07:00:00 7,0 6,0 4 2 7 4 SSE 1025,1 10
15.09.2019 06:00:00 7,4 6,8 2 1 4 2 - 1025,3 10
15.09.2019 05:00:00 8,3 7,1 4 2 - - SSE 1025,5 10
15.09.2019 04:00:00 7,6 6,7 4 2 4 2 S 1026,2 10
15.09.2019 03:00:00 8,9 7,2 0 0 4 2 N 1026,5 10
15.09.2019 02:00:00 10,0 7,6 0 0 - - N 1027,0 10
15.09.2019 01:00:00 10,4 8,2 0 0 4 2 N 1027,3 10
15.09.2019 00:00:00 12,0 8,5 2 1 4 2 SSE 1028,0 10
14.09.2019 23:00:00 12,6 8,9 2 1 - - - 1028,5 10
14.09.2019 22:00:00 13,7 8,8 2 1 4 2 SE 1029,1 10
14.09.2019 21:00:00 16,6 8,2 4 2 11 6 - 1029,1 10
14.09.2019 20:00:00 18,8 8,7 8 4 - - ESE 1029,0 10
14.09.2019 19:00:00 21,0 7,6 8 4 14 8 E 1029,3 10
14.09.2019 18:00:00 21,8 8,0 8 4 14 8 E 1029,5 10
14.09.2019 17:00:00 22,1 6,9 8 4 - - E 1030,2 10
14.09.2019 16:00:00 21,5 6,1 4 2 22 12 E 1031,0 20
14.09.2019 15:00:00 21,1 7,9 8 4 18 10 E 1032,0 10
14.09.2019 14:00:00 21,0 9,0 9 5 - - E 1032,5 10
14.09.2019 13:00:00 20,3 9,4 11 6 22 12 ESE 1033,0 10
14.09.2019 12:00:00 19,5 9,5 15 8 22 12 ESE 1033,8 10
14.09.2019 11:00:00 17,5 10,3 13 7 - - E 1034,0 10
14.09.2019 10:00:00 14,4 9,2 8 4 11 6 ENE 1034,6 10
14.09.2019 09:00:00 12,4 9,9 5 3 14 8 E 1034,1 10
14.09.2019 08:00:00 10,7 8,9 8 4 - - NE 1034,2 10
14.09.2019 07:00:00 10,1 8,9 2 1 7 4 - 1034,0 10
14.09.2019 06:00:00 11,0 9,3 4 2 7 4 NE 1034,4 10

tt = Température de l'air
td = dewpoint
ff = Vitesse du vent
fx = gusts
dd = Direction du vent
ppp = reduced air pressure
vv = visibility

stations d'obs. à proximité